Pagina principale
METAR-TAF:

METAR-TAF

Aeroporti :

Quakertown Airport

Quakertown, Pennsylvania, Stati Uniti

latitudine: 40-26-06N, longitudine: 075-22-54W, altezza: 160 m

Osservazione

Il bollettino è stato emesso 12 minuti fa, alle 22:35 UTC
Vento calmo
Temperature 23°C
Umidità 44%
Pressione 1011 hPa
Visibilità: 16.1 km
Cielo sereno

METAR: KUKT 232235Z AUTO 00000KT 10SM CLR 23/10 A2984 RMK A01

Ora: 18:47 (22:47 UTC)


TAF: mancante

Osservazioni e previsioni meteorologiche di più di 4000 aeroporti (messaggi METAR e TAF).

Le stazioni disponibili sono rappresentate dai dischi gialli e rossi sulla carta.

Puntare il mouse per vedere il nome della stazione.

Clicca sopra per visualizzare le osservazioni e previsioni meteorologiche.

Per cambiare la mappa : fare clic sui pulsanti verdi con una croce nera per ingrandire, il pulsante verde con un trattino per diminuire, o sulla freccia verde per le mappe adiacenti.


METAR-TAF: